Location: Clermont
(50.2608°N, 4.3172°E)
Time: 06:21:49
(UTC+00:00)

ALOS 2 - Pass Details

Date: 13 August 2020
Orbit: 630 x 632 km, 97.9° (Epoch: 23 September)

Event Time Altitude Azimuth Distance (km) Brightness Sun altitude
Exits shadow 22:34:55 48° 81° (E) 832 3.0 -23.5°
Maximum altitude 22:35:10 49° 70° (ENE) 825 3.1 -23.5°
Drops below altitude 10° 22:39:25 10° 356° (N) 2,027 6.2 -23.7°
Sets 22:41:40 0° 351° (N) 2,940 7.4 -23.8°
